Torna al catalogo

CZ-4C R/B

AttivoPO
NORAD 47304·ROCKET BODY·🇨🇳 China

Lanciato Dec 27, 2020 da Jiuquan Satellite Launch Center

Loading…

Prossimi Passaggi (prossime 24 ore)

TLE

AggiornatoSource: Space-Track

Epoca: Sep 14, 2026, 21:41 UTC

1 47304U 20103C   26257.90385837  .00000864  00000-0  67464-4 0  9998
2 47304  98.3516 301.5985 0085032  37.5008 323.2105 15.01475942311643

Traccia CZ-4C R/B in tempo reale con AllMySat

Download on the App Store